Regional Weather Roundup
Issued by NWS

Home | Current Version | Previous Version | Text Only | Print | Product List | Glossary On
Versions: 1 2 3 4 5 6 7 8 9 10 11 12 13 14 15 16 17 18 19 20 21 22 23 24 25 26 27
000
ASUS43 KDMX 250607
RWRIA

WEATHER ROUNDUP FOR IOWA
NATIONAL WEATHER SERVICE DES MOINES IA
100 AM CDT FRI APR 25 2014

NOTE: "FAIR" INDICATES FEW OR NO CLOUDS BELOW 12,000 FEET WITH NO
SIGNIFICANT WEATHER AND/OR OBSTRUCTIONS TO VISIBILITY.

* - THESE STATIONS ARE NOT NWS STATIONS...THUS NOT UNDER NWS
QUALITY CONTROL.  THEY ALSO DO NOT REPORT WEATHER SUCH
AS PRECIPITATION OR FOG.

IAZ001>003-012>014-020>022-031>034-043>046-250700-
   NORTHWEST IOWA

CITY           SKY/WX    TMP DP  RH WIND       PRES   REMARKS
CARROLL *      PTCLDY    45  41  87 CALM      29.80S
CHEROKEE *       N/A     41  39  94 CALM      29.78S
DENISON *      CLEAR     43  43 100 CALM      29.80S
LE MARS *        N/A     39  37  93 CALM      29.79S
ORANGE CITY *  CLEAR     46  39  76 S3        29.78S
SHELDON *      CLEAR     41  39  93 S5        29.77R
SIOUX CITY       N/A     45  36  70 CALM      29.79S
6HR MIN TEMP:  42; 6HR MAX TEMP:  67;

SPENCER          N/A     38  36  92 S7        29.77F WCI  33
6HR MIN TEMP:  38; 6HR MAX TEMP:  57;

STORM LAKE *   CLEAR     45  43  93 S8        29.79S
$$

IAZ055>058-069>071-079>083-090>094-250700-
   SOUTHWEST IOWA

CITY           SKY/WX    TMP DP  RH WIND       PRES   REMARKS
ATLANTIC *     CLEAR     41  39  93 CALM      29.82S
AUDUBON *      CLEAR     36  30  80 CALM      29.82S
CLARINDA *       N/A     41  41 100 CALM      29.85R FOG
COUNCIL BLFS * CLEAR     52  46  82 SW6       29.81S
CRESTON *      CLEAR     43  43 100 CALM      29.83R
HARLAN  *      CLEAR     43  41  93 S6        29.84S FOG
LAMONI           N/A     46  43  89 W8        29.82S
6HR MIN TEMP:  46; 6HR MAX TEMP:  52;

RED OAK *      CLEAR     39  39 100 CALM      29.83S
SHENANDOAH *   CLEAR     48  45  87 CALM      29.84S
$$

IAZ047>049-059>061-072>074-084-250700-
   CENTRAL IOWA

CITY           SKY/WX    TMP DP  RH WIND       PRES   REMARKS
AMES             N/A     40  38  93 W7        29.79S
6HR MIN TEMP:  40; 6HR MAX TEMP:  53;

ANKENY *       CLEAR     43  43 100 CALM      29.80S
CHARITON *     CLEAR     45  43  93 W8        29.80S
DES MOINES       N/A     47  42  83 NW3       29.81R
6HR MIN TEMP:  47; 6HR MAX TEMP:  55;

GRINNELL*        N/A     43  41  93 NW6       29.79R
KNOXVILLE *    CLEAR     45  43  93 NW8       29.79R
MARSHALLTOWN     N/A     41  41 100 W6        29.77F FOG
6HR MIN TEMP:  41; 6HR MAX TEMP:  50;

NEWTON *       CLEAR     45  45 100 NW6       29.80S
PELLA *          N/A     46  44  94 NW7       29.81R
PERRY *          N/A     41  39  93 CALM      29.81R
$$

IAZ004>006-015-016-023>025-035-036-250700-
   NORTH CENTRAL IOWA

CITY           SKY/WX    TMP DP  RH WIND       PRES   REMARKS
ALGONA *       CLEAR     41  39  93 W7        29.77F
CLARION *      CLEAR     39  39 100 CALM      29.78R FOG
ESTHERVILLE      N/A     36  36 100 SW8       29.76S WCI  30
6HR MIN TEMP:  36; 6HR MAX TEMP:  53;

FORT DODGE *     N/A     39  37  93 CALM      29.79S
MASON CITY       N/A     39  38  96 CALM      29.77S FOG
6HR MIN TEMP:  37; 6HR MAX TEMP:  49;

FOREST CITY *    N/A     37  37 100 CALM      29.76R FOG
IOWA FALLS *     N/A     39  37  93 SW7       29.79R FOG     WCI  34
$$

IAZ007>011-017>019-026>030-037>042-050>054-066-250700-
   NORTHEAST IOWA

CITY           SKY/WX    TMP DP  RH WIND       PRES   REMARKS
CEDAR RAPIDS     N/A     45  42  89 NW10      29.74R
6HR MIN TEMP:  45; 6HR MAX TEMP:  52; 6HR PCP:  0.15;

CHARLES CITY * CLEAR     39  39 100 W3        29.77R FOG
CLINTON *      CLOUDY    50  46  87 N16G22    29.71S
DECORAH *      CLEAR     43  43 100 W5        29.74R
DUBUQUE          N/A     45  42  89 N12       29.71R
6HR MIN TEMP:  45; 6HR MAX TEMP:  51; 6HR PCP:  0.27;

MONTICELLO *   CLEAR     45  43  93 NW10      29.73R
OELWEIN *      CLEAR    N/A N/A N/A NW8       29.75F
WATERLOO         N/A     41  39  93 W5        29.76S
6HR MIN TEMP:  41; 6HR MAX TEMP:  50;

$$

IAZ064-065-067-068-078-250700-
   EAST CENTRAL IOWA

CITY           SKY/WX    TMP DP  RH WIND       PRES   REMARKS
DAVENPORT      CLOUDY    50  47  89 NW15      29.70R FOG
6HR MIN TEMP:  50; 6HR MAX TEMP:  55; 6HR PCP:  0.10;

IOWA CITY        N/A     47  44  90 NW10      29.75R
6HR MIN TEMP:  47; 6HR MAX TEMP:  53; 6HR PCP:  0.06;

MT. PLEASANT *   N/A     49  46  90 NW9       29.75R
MUSCATINE *    MOCLDY    50  46  87 NW10      29.74R
QUAD CITIES    CLOUDY    51  48  89 NW14G23   29.70R
6HR MIN TEMP:  51; 6HR MAX TEMP:  56; 6HR PCP:  0.05;

$$

IAZ062-063-075>077-085>089-095>099-250700-
   SOUTHEAST IOWA

CITY           SKY/WX    TMP DP  RH WIND       PRES   REMARKS
BURLINGTON     MOCLDY    50  46  86 NW16G23   29.72R
6HR MIN TEMP:  50; 6HR MAX TEMP:  54; 6HR PCP:  0.01;

FAIRFIELD *    CLEAR     46  43  87 NW13      29.77R
FORT MADISON * PTCLDY    48  48 100 NW10      29.74R
KEOKUK *       MOCLDY    50  46  87 NW13G20   29.73S
OSKALOOSA *      N/A     44  42  95 NW9       29.79R
CENTERVILLE *  CLEAR     46  46 100 W8        29.81R
OTTUMWA          N/A     46  44  93 NW9       29.78R
6HR MIN TEMP:  46; 6HR MAX TEMP:  51; 6HR PCP:  0.01;

WASHINGTON *   CLEAR     46  45  93 NW13      29.76R
$$

ABBREVIATIONS USED IN REMARKS
   TC - TEMPERATURES IN CELSIUS
  WCI - WIND CHILL INDEX
   HX - HEAT INDEX
  VSB - VISIBILITY
$$




USA.gov is the U.S. government's official web portal to all federal, state and local government web resources and services.